RPC2706 RPLC-RPLL

Flight info

Callsign RPC2706
Flight time N/A
Altitude 3500
Route VFR TMA
Aircraft C152/L-SFG/C

Departure

Time 2026-04-30 12:35
Airport Clark International Airport / Clark Air Base (RPLC)

Arrival

Time N/A
Airport Ninoy Aquino International Airport (RPLL)
Time Latitude Longitude Altitude Speed Heading
2026-04-30 12:11 15.17125 120.56480 430 ft 0 kts 200°
2026-04-30 12:32 15.17117 120.56462 428 ft 8 kts 290°
2026-04-30 12:32 15.17166 120.56460 430 ft 13 kts 18°
2026-04-30 12:32 15.17317 120.56515 430 ft 27 kts 18°
2026-04-30 12:32 15.17434 120.56554 430 ft 9 kts 342°
2026-04-30 12:33 15.17504 120.56554 431 ft 14 kts 19°
2026-04-30 12:33 15.17572 120.56575 429 ft 5 kts 352°
2026-04-30 12:33 15.17586 120.56565 431 ft 7 kts 301°
2026-04-30 12:33 15.17582 120.56525 433 ft 3 kts 198°
2026-04-30 12:34 15.17472 120.56486 433 ft 42 kts 200°
2026-04-30 12:34 15.17064 120.56339 499 ft 70 kts 201°
2026-04-30 12:34 15.16593 120.56156 662 ft 75 kts 202°
2026-04-30 12:34 15.16097 120.55959 796 ft 80 kts 203°
2026-04-30 12:35 15.15593 120.55729 957 ft 79 kts 205°
2026-04-30 12:35 15.15063 120.55535 1114 ft 80 kts 179°
2026-04-30 12:35 15.14576 120.55816 1234 ft 90 kts 129°
2026-04-30 12:35 15.14228 120.56345 1344 ft 89 kts 117°
2026-04-30 12:36 15.13918 120.56836 1446 ft 76 kts 122°
2026-04-30 12:36 15.13606 120.57253 1452 ft 73 kts 132°
2026-04-30 12:36 15.13137 120.57516 1524 ft 76 kts 159°
2026-04-30 12:36 15.12623 120.57586 1701 ft 77 kts 172°
2026-04-30 12:37 15.12051 120.57604 1830 ft 85 kts 178°
2026-04-30 12:37 15.11464 120.57602 2002 ft 85 kts 179°
2026-04-30 12:37 15.10872 120.57588 2161 ft 86 kts 178°
2026-04-30 12:37 15.10266 120.57586 2383 ft 87 kts 177°
2026-04-30 12:38 15.09681 120.57683 2515 ft 91 kts 162°
2026-04-30 12:38 15.09039 120.57888 2556 ft 102 kts 159°
2026-04-30 12:38 15.08365 120.58120 2580 ft 102 kts 159°
2026-04-30 12:38 15.07669 120.58278 2590 ft 102 kts 166°
2026-04-30 12:39 15.06955 120.58391 2515 ft 107 kts 166°
2026-04-30 12:39 15.06243 120.58548 2471 ft 102 kts 165°
2026-04-30 12:39 15.05560 120.58691 2369 ft 99 kts 167°
2026-04-30 12:39 15.04882 120.58841 2243 ft 101 kts 163°
2026-04-30 12:40 15.04215 120.59024 2110 ft 103 kts 161°
2026-04-30 12:40 15.03520 120.59198 1969 ft 102 kts 166°
2026-04-30 12:40 15.02819 120.59341 1879 ft 100 kts 168°
2026-04-30 12:40 15.02164 120.59428 1898 ft 91 kts 172°
2026-04-30 12:41 15.01553 120.59492 1869 ft 89 kts 173°
2026-04-30 12:41 15.00934 120.59516 2055 ft 87 kts 174°
2026-04-30 12:41 15.00311 120.59511 2201 ft 95 kts 178°
2026-04-30 12:41 14.99632 120.59486 2131 ft 98 kts 179°
2026-04-30 12:42 14.98964 120.59481 2166 ft 94 kts 174°
2026-04-30 12:42 14.98311 120.59512 2140 ft 94 kts 175°
2026-04-30 12:42 14.97671 120.59488 2128 ft 91 kts 180°
2026-04-30 12:42 14.97021 120.59435 2196 ft 92 kts 179°
2026-04-30 12:43 14.96388 120.59387 2260 ft 91 kts 179°
2026-04-30 12:43 14.95732 120.59296 2305 ft 100 kts 186°
2026-04-30 12:43 14.95015 120.59155 2246 ft 108 kts 189°
2026-04-30 12:43 14.94296 120.58933 2256 ft 108 kts 197°
2026-04-30 12:44 14.93611 120.58683 2316 ft 96 kts 198°
2026-04-30 12:44 14.92998 120.58396 2333 ft 97 kts 202°
2026-04-30 12:44 14.92368 120.58089 2433 ft 103 kts 202°
2026-04-30 12:44 14.91693 120.57739 2378 ft 110 kts 204°
2026-04-30 12:45 14.91018 120.57430 2339 ft 104 kts 196°
2026-04-30 12:45 14.90329 120.57281 2293 ft 101 kts 183°
2026-04-30 12:45 14.89632 120.57192 2243 ft 101 kts 185°
2026-04-30 12:45 14.88944 120.57073 2243 ft 97 kts 187°
2026-04-30 12:46 14.88280 120.56933 2222 ft 102 kts 188°
2026-04-30 12:46 14.87592 120.56786 2292 ft 103 kts 188°
2026-04-30 12:46 14.86885 120.56596 2255 ft 104 kts 193°
2026-04-30 12:46 14.86177 120.56379 2147 ft 107 kts 195°
2026-04-30 12:47 14.85471 120.56137 2074 ft 106 kts 193°
2026-04-30 12:47 14.84780 120.55903 2076 ft 100 kts 194°
2026-04-30 12:47 14.84115 120.55732 2060 ft 98 kts 187°
2026-04-30 12:47 14.83445 120.55629 2009 ft 95 kts 184°
2026-04-30 12:48 14.82794 120.55521 2013 ft 95 kts 184°
2026-04-30 12:48 14.82129 120.55446 2062 ft 97 kts 181°
2026-04-30 12:48 14.81432 120.55388 2102 ft 101 kts 182°
2026-04-30 12:48 14.80734 120.55321 2085 ft 101 kts 184°
2026-04-30 12:49 14.80026 120.55214 2002 ft 105 kts 186°
2026-04-30 12:49 14.79332 120.55109 2032 ft 97 kts 182°
2026-04-30 12:49 14.78673 120.55032 2088 ft 95 kts 182°
2026-04-30 12:49 14.78005 120.54946 2119 ft 98 kts 181°
2026-04-30 12:50 14.77316 120.54889 2075 ft 100 kts 179°
2026-04-30 12:50 14.76639 120.54862 2126 ft 96 kts 175°
2026-04-30 12:50 14.75993 120.54863 2254 ft 87 kts 167°
2026-04-30 12:50 14.75343 120.54912 2220 ft 99 kts 174°
2026-04-30 12:51 14.74644 120.54937 2295 ft 102 kts 170°
2026-04-30 12:51 14.73935 120.55037 2291 ft 103 kts 163°
2026-04-30 12:51 14.73239 120.55216 2221 ft 104 kts 162°
2026-04-30 12:51 14.72543 120.55385 2153 ft 102 kts 162°
2026-04-30 12:52 14.71842 120.55503 2109 ft 102 kts 168°
2026-04-30 12:52 14.71158 120.55573 2114 ft 96 kts 168°
2026-04-30 12:52 14.70513 120.55674 2165 ft 90 kts 165°
2026-04-30 12:52 14.69911 120.55746 2261 ft 84 kts 168°
2026-04-30 12:53 14.69336 120.55818 2365 ft 84 kts 171°
2026-04-30 12:53 14.68763 120.55876 2564 ft 82 kts 165°
2026-04-30 12:53 14.68141 120.55991 2468 ft 98 kts 164°
2026-04-30 12:53 14.67455 120.56106 2393 ft 101 kts 166°
2026-04-30 12:54 14.66772 120.56213 2401 ft 97 kts 163°
2026-04-30 12:54 14.66129 120.56384 2490 ft 93 kts 157°
2026-04-30 12:54 14.65480 120.56552 2537 ft 101 kts 163°
2026-04-30 12:54 14.64774 120.56682 2433 ft 103 kts 165°
2026-04-30 12:55 14.64074 120.56795 2391 ft 101 kts 166°
2026-04-30 12:55 14.63387 120.56895 2492 ft 99 kts 165°
2026-04-30 12:55 14.62689 120.57020 2508 ft 104 kts 165°
2026-04-30 12:55 14.61973 120.57178 2525 ft 105 kts 159°
2026-04-30 12:56 14.61260 120.57371 2435 ft 104 kts 159°
2026-04-30 12:56 14.60577 120.57549 2422 ft 99 kts 158°
2026-04-30 12:56 14.59905 120.57715 2414 ft 101 kts 162°
2026-04-30 12:56 14.59215 120.57825 2434 ft 96 kts 166°
2026-04-30 12:57 14.58557 120.57910 2432 ft 95 kts 164°
2026-04-30 12:57 14.57904 120.58005 2489 ft 95 kts 165°
2026-04-30 12:57 14.57240 120.58126 2437 ft 99 kts 160°
2026-04-30 12:57 14.56552 120.58307 2345 ft 104 kts 160°
2026-04-30 12:58 14.55850 120.58443 2304 ft 100 kts 167°
2026-04-30 12:58 14.55177 120.58518 2461 ft 96 kts 167°
2026-04-30 12:58 14.54492 120.58607 2439 ft 102 kts 167°
2026-04-30 12:58 14.53782 120.58693 2479 ft 101 kts 169°
2026-04-30 12:59 14.53083 120.58764 2435 ft 100 kts 168°
2026-04-30 12:59 14.52388 120.58850 2477 ft 100 kts 166°
2026-04-30 12:59 14.51694 120.58953 2374 ft 103 kts 166°
2026-04-30 12:59 14.50995 120.59074 2331 ft 105 kts 165°
2026-04-30 13:00 14.50287 120.59112 2364 ft 102 kts 176°
2026-04-30 13:00 14.49607 120.59033 2402 ft 96 kts 182°
2026-04-30 13:00 14.48968 120.58907 2495 ft 94 kts 184°
2026-04-30 13:00 14.48295 120.58758 2563 ft 106 kts 185°
2026-04-30 13:01 14.47557 120.58606 2529 ft 110 kts 185°
2026-04-30 13:01 14.46803 120.58427 2294 ft 113 kts 189°
2026-04-30 13:01 14.46132 120.58120 2268 ft 99 kts 211°
2026-04-30 13:01 14.45690 120.57587 2513 ft 98 kts 240°
2026-04-30 13:02 14.45421 120.56916 2665 ft 105 kts 244°
2026-04-30 13:02 14.45152 120.56182 2541 ft 110 kts 250°
2026-04-30 13:02 14.44921 120.55431 2511 ft 110 kts 254°
2026-04-30 13:02 14.44709 120.54654 2550 ft 113 kts 254°
2026-04-30 13:03 14.44504 120.53869 2472 ft 114 kts 253°
2026-04-30 13:03 14.44269 120.53082 2274 ft 117 kts 250°
2026-04-30 13:03 14.44051 120.52310 2356 ft 107 kts 253°
2026-04-30 13:03 14.43893 120.51587 2502 ft 105 kts 255°
2026-04-30 13:04 14.43603 120.50847 2342 ft 116 kts 242°
2026-04-30 13:04 14.43287 120.50125 2343 ft 104 kts 245°
2026-04-30 13:04 14.43013 120.49459 2353 ft 96 kts 246°
2026-04-30 13:04 14.42816 120.48832 2372 ft 91 kts 252°
2026-04-30 13:05 14.42689 120.48180 2475 ft 95 kts 259°
2026-04-30 13:05 14.42621 120.47444 2415 ft 109 kts 265°
2026-04-30 13:05 14.42601 120.46637 2468 ft 112 kts 268°
2026-04-30 13:06 14.42597 120.44990 2474 ft 107 kts 274°
2026-04-30 13:06 14.42661 120.44274 2536 ft 95 kts 277°
2026-04-30 13:06 14.42721 120.43812 2544 ft 102 kts 279°
2026-04-30 13:06 14.42859 120.42798 2522 ft 112 kts 279°
2026-04-30 13:07 14.42979 120.41980 2440 ft 117 kts 279°
2026-04-30 13:07 14.43118 120.41191 2474 ft 109 kts 283°
2026-04-30 13:07 14.43280 120.40432 2461 ft 108 kts 286°
2026-04-30 13:07 14.43482 120.39703 2489 ft 106 kts 289°
2026-04-30 13:08 14.43701 120.38967 2473 ft 107 kts 288°
2026-04-30 13:08 14.43925 120.38222 2393 ft 113 kts 289°
2026-04-30 13:08 14.44191 120.37439 2318 ft 109 kts 293°
2026-04-30 13:08 14.44477 120.36751 2379 ft 99 kts 297°
2026-04-30 13:09 14.44783 120.36104 2369 ft 102 kts 298°
2026-04-30 13:09 14.45081 120.35449 2364 ft 104 kts 294°
2026-04-30 13:09 14.45301 120.35000 2355 ft 105 kts 309°
2026-04-30 13:09 14.46073 120.34523 2336 ft 102 kts 351°
2026-04-30 13:10 14.46522 120.34385 2368 ft 98 kts 346°
2026-04-30 13:10 14.47134 120.34209 2477 ft 88 kts 352°
2026-04-30 13:10 14.47717 120.34025 2489 ft 94 kts 338°
2026-04-30 13:10 14.48106 120.33441 2430 ft 105 kts 296°
2026-04-30 13:11 14.48536 120.32845 2443 ft 103 kts 318°
2026-04-30 13:11 14.49029 120.32326 2511 ft 98 kts 316°
2026-04-30 13:11 14.49475 120.31758 2492 ft 103 kts 312°
2026-04-30 13:11 14.49940 120.31179 2469 ft 106 kts 313°
2026-04-30 13:12 14.50442 120.30588 2350 ft 111 kts 314°
2026-04-30 13:12 14.50954 120.30034 2359 ft 104 kts 316°
2026-04-30 13:12 14.51376 120.29414 2302 ft 107 kts 296°
2026-04-30 13:13 14.51898 120.28055 2416 ft 97 kts 296°
2026-04-30 13:13 14.52178 120.27416 2415 ft 102 kts 295°
2026-04-30 13:13 14.52662 120.26112 2451 ft 102 kts 290°
2026-04-30 13:14 14.52981 120.25439 2433 ft 103 kts 304°
2026-04-30 13:14 14.53415 120.24839 2394 ft 109 kts 317°
2026-04-30 13:14 14.54413 120.23809 2549 ft 88 kts 323°
2026-04-30 13:15 14.54906 120.23396 2565 ft 95 kts 332°
2026-04-30 13:15 14.56210 120.22982 2474 ft 103 kts
2026-04-30 13:15 14.56923 120.23020 2377 ft 103 kts 11°
2026-04-30 13:16 14.57640 120.23111 2308 ft 104 kts 15°
2026-04-30 13:16 14.58352 120.23230 2275 ft 102 kts 14°
2026-04-30 13:16 14.59034 120.23284 2343 ft 97 kts
2026-04-30 13:17 14.60333 120.23064 2380 ft 95 kts 352°
2026-04-30 13:17 14.60979 120.22931 2372 ft 94 kts 359°
2026-04-30 13:17 14.62266 120.22936 2402 ft 93 kts
2026-04-30 13:18 14.62923 120.22908 2413 ft 98 kts
2026-04-30 13:18 14.64340 120.22816 2319 ft 106 kts 359°
2026-04-30 13:18 14.65077 120.22756 2172 ft 108 kts 360°
2026-04-30 13:19 14.65827 120.22705 1977 ft 107 kts 358°
2026-04-30 13:19 14.66562 120.22587 1769 ft 104 kts 354°
2026-04-30 13:19 14.67235 120.22563 1677 ft 92 kts
2026-04-30 13:19 14.67873 120.22642 1494 ft 93 kts 14°
2026-04-30 13:20 14.68473 120.22793 1402 ft 86 kts 19°
2026-04-30 13:20 14.69077 120.22940 1320 ft 88 kts 12°
2026-04-30 13:20 14.69674 120.22971 1315 ft 83 kts
2026-04-30 13:20 14.70217 120.22842 1289 ft 80 kts 348°
2026-04-30 13:21 14.70743 120.22677 1246 ft 81 kts 348°
2026-04-30 13:21 14.71297 120.22482 1207 ft 88 kts 344°
2026-04-30 13:21 14.71922 120.22350 1147 ft 92 kts 360°
2026-04-30 13:22 14.73098 120.22699 1128 ft 88 kts 19°
2026-04-30 13:22 14.73695 120.22822 1098 ft 86 kts
2026-04-30 13:22 14.74807 120.22392 1011 ft 85 kts 353°
2026-04-30 13:23 14.75379 120.22289 1030 ft 81 kts 351°
2026-04-30 13:23 14.76483 120.22167 1060 ft 78 kts
2026-04-30 13:24 14.77489 120.22548 828 ft 81 kts 46°
2026-04-30 13:24 14.77946 120.23475 533 ft 67 kts 63°
2026-04-30 13:25 14.78320 120.24377 299 ft 65 kts 65°
2026-04-30 13:25 14.78628 120.25138 214 ft 60 kts 63°
2026-04-30 13:26 14.79091 120.26254 48 ft 41 kts 65°
2026-04-30 13:26 14.79385 120.27064 377 ft 65 kts 63°
2026-04-30 13:27 14.79754 120.28039 917 ft 79 kts 70°
2026-04-30 13:28 14.81149 120.28166 1466 ft 91 kts 341°
2026-04-30 13:28 14.81630 120.26972 1487 ft 107 kts 256°
2026-04-30 13:28 14.81468 120.26217 1419 ft 101 kts 259°
2026-04-30 13:29 14.81318 120.24915 1416 ft 85 kts 262°
2026-04-30 13:29 14.80970 120.23749 1394 ft 83 kts 230°
2026-04-30 13:30 14.79444 120.22689 1450 ft 94 kts 202°
2026-04-30 13:31 14.78274 120.22178 1604 ft 89 kts 198°
2026-04-30 13:31 14.76671 120.21359 1954 ft 92 kts 208°
2026-04-30 13:32 14.75373 120.21198 1957 ft 102 kts 172°
2026-04-30 13:32 14.74072 120.21435 2157 ft 88 kts 163°
2026-04-30 13:33 14.72970 120.21809 2344 ft 82 kts 149°
2026-04-30 13:33 14.71937 120.22314 2457 ft 89 kts 150°
2026-04-30 13:34 14.71374 120.22598 2515 ft 92 kts 150°
2026-04-30 13:34 14.69577 120.23617 2417 ft 93 kts 149°
2026-04-30 13:35 14.68998 120.23857 2431 ft 89 kts 158°
2026-04-30 13:35 14.67892 120.24193 2532 ft 76 kts 145°
2026-04-30 13:36 14.66919 120.24851 2482 ft 90 kts 143°
2026-04-30 13:36 14.66385 120.25223 2427 ft 96 kts 143°
2026-04-30 13:36 14.65239 120.25845 2424 ft 89 kts 152°
2026-04-30 13:37 14.64658 120.26098 2377 ft 92 kts 152°
2026-04-30 13:37 14.63561 120.26599 2472 ft 88 kts 149°
2026-04-30 13:38 14.62520 120.27254 2473 ft 92 kts 141°
2026-04-30 13:38 14.61989 120.27643 2454 ft 89 kts 141°
2026-04-30 13:38 14.61029 120.28370 2544 ft 84 kts 139°
2026-04-30 13:39 14.59960 120.29017 2461 ft 92 kts 151°
2026-04-30 13:39 14.58819 120.29497 2411 ft 88 kts 158°
2026-04-30 13:40 14.58262 120.29689 2415 ft 84 kts 159°
2026-04-30 13:40 14.57707 120.29853 2420 ft 81 kts 160°
2026-04-30 13:40 14.57163 120.30012 2419 ft 82 kts 159°
2026-04-30 13:40 14.56622 120.30192 2437 ft 80 kts 157°
2026-04-30 13:41 14.56089 120.30403 2458 ft 85 kts 152°
2026-04-30 13:41 14.55682 120.30778 2533 ft 79 kts 119°
2026-04-30 13:41 14.55422 120.31303 2539 ft 84 kts 115°
2026-04-30 13:41 14.55117 120.31799 2629 ft 77 kts 120°
2026-04-30 13:42 14.55066 120.32339 2629 ft 86 kts 65°
2026-04-30 13:42 14.55631 120.32592 2591 ft 103 kts 359°
2026-04-30 13:42 14.56712 120.31540 2420 ft 107 kts 286°
2026-04-30 13:43 14.56544 120.30873 2441 ft 96 kts 221°
2026-04-30 13:43 14.55962 120.30632 2424 ft 89 kts 177°
2026-04-30 13:43 14.55421 120.30812 2473 ft 81 kts 134°
2026-04-30 13:43 14.55225 120.31335 2445 ft 85 kts 86°
2026-04-30 13:44 14.55496 120.31883 2432 ft 88 kts 46°
2026-04-30 13:44 14.56090 120.32041 2431 ft 98 kts 355°
2026-04-30 13:44 14.56651 120.31630 2416 ft 104 kts 297°
2026-04-30 13:44 14.56562 120.30926 2399 ft 103 kts 228°
2026-04-30 13:45 14.55362 120.30886 2319 ft 93 kts 133°
2026-04-30 13:45 14.55069 120.31465 2240 ft 89 kts 97°
2026-04-30 13:45 14.55264 120.32002 2304 ft 82 kts 47°
2026-04-30 13:46 14.55818 120.32146 2297 ft 90 kts 355°
2026-04-30 13:46 14.56329 120.31772 2311 ft 94 kts 303°
2026-04-30 13:46 14.56365 120.31149 2386 ft 88 kts 242°
2026-04-30 13:46 14.55899 120.30789 2401 ft 86 kts 179°
2026-04-30 13:47 14.55363 120.31001 2455 ft 82 kts 143°
2026-04-30 13:47 14.54917 120.31314 2590 ft 74 kts 137°
2026-04-30 13:47 14.54534 120.31629 2747 ft 69 kts 132°
2026-04-30 13:47 14.54219 120.31992 2893 ft 67 kts 124°
2026-04-30 13:48 14.53907 120.32379 3006 ft 73 kts 127°
2026-04-30 13:48 14.53567 120.32768 3143 ft 74 kts 128°
2026-04-30 13:48 14.53230 120.33166 3268 ft 76 kts 129°
2026-04-30 13:48 14.52821 120.33509 3359 ft 82 kts 137°
2026-04-30 13:49 14.52358 120.33854 3444 ft 78 kts 139°
2026-04-30 13:49 14.51915 120.34177 3499 ft 82 kts 136°
2026-04-30 13:49 14.51447 120.34563 3483 ft 91 kts 134°
2026-04-30 13:49 14.51124 120.34850 3474 ft 93 kts 134°
2026-04-30 13:50 14.50473 120.35443 3466 ft 94 kts 132°
2026-04-30 13:50 14.49494 120.36334 3440 ft 95 kts 135°
2026-04-30 13:50 14.48991 120.36759 3455 ft 92 kts 134°
2026-04-30 13:51 14.48508 120.37161 3507 ft 87 kts 136°
2026-04-30 13:51 14.48015 120.37542 3493 ft 90 kts 137°
2026-04-30 13:51 14.47497 120.37945 3462 ft 92 kts 136°
2026-04-30 13:51 14.47004 120.38369 3436 ft 94 kts 132°
2026-04-30 13:52 14.46650 120.38882 3434 ft 89 kts 113°
2026-04-30 13:52 14.46375 120.39456 3463 ft 90 kts 113°
2026-04-30 13:52 14.46183 120.39836 3607 ft 90 kts 115°
2026-04-30 13:52 14.45777 120.40613 3511 ft 94 kts 112°
2026-04-30 13:53 14.45585 120.41029 3527 ft 96 kts 115°
2026-04-30 13:53 14.45293 120.41626 3547 ft 92 kts 117°
2026-04-30 13:53 14.44919 120.42363 3523 ft 81 kts 115°
2026-04-30 13:53 14.44725 120.42672 3774 ft 67 kts 118°
2026-04-30 13:54 14.44446 120.43134 3668 ft 85 kts 114°
2026-04-30 13:54 14.44099 120.43843 3575 ft 86 kts 113°
2026-04-30 13:54 14.43896 120.44222 3461 ft 91 kts 114°
2026-04-30 13:54 14.43636 120.44794 3413 ft 84 kts 108°
2026-04-30 13:55 14.43485 120.45354 3353 ft 81 kts 103°
2026-04-30 13:55 14.43364 120.45897 3349 ft 73 kts 94°
2026-04-30 13:55 14.43347 120.46414 3456 ft 72 kts 90°
2026-04-30 13:55 14.43348 120.46919 3570 ft 72 kts 88°
2026-04-30 13:56 14.43335 120.47451 3669 ft 75 kts 91°
2026-04-30 13:56 14.43337 120.48030 3623 ft 88 kts 88°
2026-04-30 13:56 14.43341 120.48679 3441 ft 90 kts 90°
2026-04-30 13:56 14.43321 120.49283 3333 ft 80 kts 92°
2026-04-30 13:57 14.43318 120.49827 3243 ft 69 kts 81°
2026-04-30 13:57 14.43389 120.50307 3201 ft 68 kts 81°
2026-04-30 13:57 14.43479 120.50761 3268 ft 62 kts 77°
2026-04-30 13:57 14.43598 120.51222 3304 ft 69 kts 75°
2026-04-30 13:58 14.43706 120.51712 3398 ft 69 kts 81°
2026-04-30 13:58 14.43587 120.52724 3556 ft 81 kts 114°
2026-04-30 13:58 14.43212 120.53211 3461 ft 91 kts 127°
2026-04-30 13:59 14.42756 120.53671 3506 ft 92 kts 129°
2026-04-30 13:59 14.42249 120.54107 3479 ft 99 kts 134°
2026-04-30 13:59 14.41729 120.54556 3364 ft 93 kts 135°
2026-04-30 13:59 14.41219 120.54927 3311 ft 86 kts 139°
2026-04-30 14:00 14.41063 120.55031 3327 ft 81 kts 139°